Location: Gradaro
(45.0833°N, 10.8833°E)
Time: 21:58:01
(UTC+00:00)

USA 307 - Pass Details

Date: 29 November 2020
Orbit: 564 x 583 km, 54.0° (Epoch: 11 January)

Event Time Altitude Azimuth Distance (km) Brightness Sun altitude
Exits shadow 05:06:15 18° 326° (NW) 1,461 4.5 -14.8°
Maximum altitude 05:08:31 28° 11° (N) 1,124 4.3 -14.5°
Drops below altitude 10° 05:12:16 10° 70° (ENE) 1,906 6.4 -13.8°
Sets 05:14:48 0° 83° (E) 2,804 7.7 -13.4°
